Date String (YYYY-MM-DD hh:mm:ss) UTC,Instrument flags,absolute air pressure of the measurement (hPa),sample flow rate (lpm),inlet stack bypass flow (lpm),air temperature of the measurement (°C),ambient temperature measured by the external sensor (°C),aerosol sample conditioner tube jacket temperature (°C),OPC LED temperature (°C),internal box temperature (°C),relative humidity of the measurement (%),span deviation,mass concentration of particles derived from Lorenz-Mie calculation of OPC scattering (μg/m³),mass concentration of particles derived from Lorenz-Mie calculation of OPC scattering (μg/m³),mass concentration of particles derived from Lorenz-Mie calculation of OPC scattering (μg/m³)
DateTimeUTC,F1_M11,P_M11,Q1_M11,Q2_M11,T1_M11,T2_M11,T3_M11,T4_M11,T5_M11,U1_M11,ZSPAN_M11,X2_M11,X0_M11,X1_M11
2023-07-18 10:00:00,SystemResetWarning,0830.9,4.98,000.00,029.4,026.7,000.0,037.7,031.0,15.0,0000.0,0004.32,0011.03,0003.78
2023-07-18 10:01:00,SystemResetWarning,0830.9,5.03,000.00,029.4,025.6,000.0,037.6,030.8,14.8,0000.0,0004.29,0010.67,0003.79
2023-07-18 10:02:00,SystemResetWarning,0830.9,5.00,000.00,029.3,025.7,000.0,037.6,030.6,14.8,0000.0,0004.33,0010.53,0003.81
2023-07-18 10:03:00,SystemResetWarning,0830.9,5.00,000.00,029.2,026.0,000.0,037.6,030.6,14.7,0000.0,0004.34,0010.70,0003.83
2023-07-18 10:04:00,SystemResetWarning,0831.0,5.00,000.00,029.2,026.3,000.0,037.7,030.6,14.7,0000.0,0004.37,0011.43,0003.84
2023-07-18 10:05:00,SystemResetWarning,0831.0,5.00,000.00,029.2,026.7,000.0,037.7,030.7,14.6,0000.0,0004.43,0011.69,0003.87
2023-07-18 10:06:00,SystemResetWarning,0831.0,4.99,000.00,029.2,027.0,000.0,037.7,030.7,14.7,0000.0,0004.46,0011.77,0003.89
2023-07-18 10:07:00,SystemResetWarning,0831.1,4.99,000.00,029.2,027.3,000.0,037.7,030.8,14.7,0000.0,0004.46,0012.10,0003.92
2023-07-18 10:08:00,SystemResetWarning,0831.1,4.99,000.00,029.3,027.5,000.0,037.7,030.9,14.7,0000.0,0004.47,0012.13,0003.93
2023-07-18 10:09:00,SystemResetWarning,0831.2,5.00,000.00,029.3,027.7,000.0,037.7,030.9,14.7,0000.0,0004.45,0012.35,0003.94
2023-07-18 10:10:00,SystemResetWarning,0831.2,5.00,000.00,029.3,027.9,000.0,037.7,031.0,14.8,0000.0,0004.49,0011.70,0003.96
2023-07-18 10:11:00,SystemResetWarning,0831.2,5.00,000.00,029.3,028.0,000.0,037.8,031.0,14.8,0000.0,0004.51,0011.72,0003.97
2023-07-18 10:12:00,SystemResetWarning,0831.1,5.01,000.00,029.4,028.1,000.0,037.8,031.0,14.6,0000.0,0004.56,0011.78,0003.99
2023-07-18 10:13:00,SystemResetWarning,0831.2,5.00,000.00,029.4,028.2,000.0,037.8,031.1,14.5,0000.0,0004.56,0011.88,0003.99
2023-07-18 10:14:00,SystemResetWarning,0831.1,5.00,000.00,029.4,027.5,000.0,037.7,031.0,14.2,0000.0,0004.56,0011.88,0003.98
2023-07-18 10:15:00,SystemResetWarning,0831.1,5.00,000.00,029.4,025.7,000.0,037.6,030.8,14.4,0000.0,0004.56,0011.21,0003.97
2023-07-18 10:16:00,SystemResetWarning,0831.1,5.01,000.00,029.3,025.5,000.0,037.6,030.7,14.6,0000.0,0004.51,0010.21,0003.95
2023-07-18 10:17:00,SystemResetWarning,0831.1,4.99,000.00,029.2,025.8,000.0,037.6,030.5,14.9,0000.0,0004.47,0009.86,0003.93
2023-07-18 10:18:00,SystemResetWarning,0831.1,4.99,000.00,029.2,026.2,000.0,037.6,030.6,14.9,0000.0,0004.44,0009.78,0003.90
2023-07-18 10:19:00,SystemResetWarning,0831.2,5.00,000.00,029.2,026.5,000.0,037.7,030.6,15.3,0000.0,0004.41,0009.84,0003.88
2023-07-18 10:20:00,SystemResetWarning,0831.1,5.01,000.00,029.2,026.9,000.0,037.7,030.7,15.1,0000.0,0004.42,0009.62,0003.88
2023-07-18 10:21:00,SystemResetWarning,0831.2,5.01,000.00,029.2,027.2,000.0,037.7,030.8,14.6,0000.0,0004.39,0009.55,0003.87
2023-07-18 10:22:00,SystemResetWarning,0831.1,4.99,000.00,029.2,027.4,000.0,037.7,030.8,14.6,0000.0,0004.37,0009.74,0003.85
2023-07-18 10:23:00,SystemResetWarning,0831.2,4.99,000.00,029.3,027.6,000.0,037.7,030.9,14.6,0000.0,0004.34,0010.12,0003.83
2023-07-18 10:24:00,SystemResetWarning,0831.2,5.00,000.00,029.3,027.8,000.0,037.7,030.9,14.5,0000.0,0004.29,0009.69,0003.81
2023-07-18 10:25:00,SystemResetWarning,0831.2,5.00,000.00,029.3,028.0,000.0,037.7,031.0,14.6,0000.0,0004.28,0009.86,0003.80
2023-07-18 10:26:00,SystemResetWarning,0831.2,5.01,000.00,029.4,028.1,000.0,037.8,031.0,14.5,0000.0,0004.27,0009.94,0003.79
2023-07-18 10:27:00,SystemResetWarning,0831.2,5.01,000.00,029.4,028.2,000.0,037.8,031.1,14.5,0000.0,0004.30,0010.24,0003.80
2023-07-18 10:28:00,SystemResetWarning,0831.3,5.00,000.00,029.4,028.3,000.0,037.8,031.1,14.5,0000.0,0004.33,0010.25,0003.81
2023-07-18 10:29:00,SystemResetWarning,0831.2,4.98,000.00,029.5,027.4,000.0,037.8,031.1,14.5,0000.0,0004.38,0010.07,0003.83
2023-07-18 10:30:00,SystemResetWarning,0831.2,5.01,000.00,029.4,025.8,000.0,037.6,030.9,14.4,0000.0,0004.39,0010.97,0003.84
2023-07-18 10:31:00,SystemResetWarning,0831.2,5.02,000.00,029.3,025.6,000.0,037.6,030.7,14.5,0000.0,0004.42,0011.59,0003.85
2023-07-18 10:32:00,SystemResetWarning,0831.2,4.99,000.00,029.3,025.9,000.0,037.6,030.6,14.6,0000.0,0004.45,0011.83,0003.85
2023-07-18 10:33:00,SystemResetWarning,0831.2,5.00,000.00,029.2,026.2,000.0,037.7,030.6,14.5,0000.0,0004.47,0011.68,0003.86
2023-07-18 10:34:00,SystemResetWarning,0831.3,5.00,000.00,029.2,026.6,000.0,037.7,030.7,14.5,0000.0,0004.52,0011.23,0003.87
2023-07-18 10:35:00,SystemResetWarning,0831.2,5.00,000.00,029.2,026.9,000.0,037.7,030.7,14.7,0000.0,0004.61,0011.66,0003.88
2023-07-18 10:36:00,SystemResetWarning,0831.3,5.01,000.00,029.2,027.2,000.0,037.7,030.8,14.6,0000.0,0004.60,0011.51,0003.88
2023-07-18 10:37:00,SystemResetWarning,0831.3,4.99,000.00,029.3,027.5,000.0,037.7,030.8,14.7,0000.0,0004.62,0011.46,0003.89
2023-07-18 10:38:00,SystemResetWarning,0831.3,4.99,000.00,029.3,027.7,000.0,037.7,030.9,15.0,0000.0,0004.59,0011.23,0003.87
2023-07-18 10:39:00,SystemResetWarning,0831.3,5.00,000.00,029.3,027.8,000.0,037.7,030.9,14.7,0000.0,0004.58,0011.23,0003.86
2023-07-18 10:40:00,SystemResetWarning,0831.3,5.01,000.00,029.3,028.0,000.0,037.8,031.0,14.6,0000.0,0004.53,0011.00,0003.85
2023-07-18 10:41:00,SystemResetWarning,0831.3,5.01,000.00,029.4,028.1,000.0,037.8,031.0,14.7,0000.0,0004.51,0009.87,0003.84
2023-07-18 10:42:00,SystemResetWarning,0831.3,5.00,000.00,029.4,028.2,000.0,037.8,031.1,14.7,0000.0,0004.45,0009.00,0003.82
2023-07-18 10:43:00,SystemResetWarning,0831.3,4.99,000.00,029.5,028.0,000.0,037.8,031.1,14.8,0000.0,0004.40,0009.64,0003.81
2023-07-18 10:44:00,SystemResetWarning,0831.3,5.00,000.00,029.4,026.2,000.0,037.7,030.8,14.7,0000.0,0004.37,0010.17,0003.80
2023-07-18 10:45:00,SystemResetWarning,0831.3,5.01,000.00,029.3,025.5,000.0,037.6,030.7,14.9,0000.0,0004.35,0010.09,0003.79
2023-07-18 10:46:00,SystemResetWarning,0831.3,5.01,000.00,029.3,025.6,000.0,037.6,030.5,14.8,0000.0,0004.33,0009.87,0003.78
2023-07-18 10:47:00,SystemResetWarning,0831.3,4.99,000.00,029.2,026.0,000.0,037.6,030.5,14.7,0000.0,0004.33,0009.86,0003.78
2023-07-18 10:48:00,SystemResetWarning,0831.3,5.00,000.00,029.2,026.4,000.0,037.6,030.6,14.7,0000.0,0004.34,0010.28,0003.77
2023-07-18 10:49:00,SystemResetWarning,0831.3,5.00,000.00,029.2,026.7,000.0,037.7,030.7,14.7,0000.0,0004.35,0010.38,0003.78
2023-07-18 10:50:00,SystemResetWarning,0831.4,4.99,000.00,029.2,027.1,000.0,037.7,030.7,14.7,0000.0,0004.31,0010.94,0003.79
2023-07-18 10:51:00,SystemResetWarning,0831.5,4.99,000.00,029.2,027.3,000.0,037.7,030.8,14.7,0000.0,0004.30,0011.72,0003.78
2023-07-18 10:52:00,SystemResetWarning,0831.5,5.00,000.00,029.2,027.6,000.0,037.7,030.9,15.3,0000.0,0004.30,0011.78,0003.78
2023-07-18 10:53:00,SystemResetWarning,0831.5,5.01,000.00,029.3,027.7,000.0,037.7,030.9,16.0,0000.0,0004.31,0011.83,0003.78
2023-07-18 10:54:00,SystemResetWarning,0831.4,5.01,000.00,029.3,027.9,000.0,037.7,031.0,15.8,0000.0,0004.31,0011.24,0003.79
2023-07-18 10:55:00,SystemResetWarning,0831.5,5.01,000.00,029.3,028.0,000.0,037.8,031.0,15.3,0000.0,0004.34,0010.49,0003.80
2023-07-18 10:56:00,SystemResetWarning,0831.5,5.00,000.00,029.4,028.2,000.0,037.8,031.1,14.9,0000.0,0004.36,0010.44,0003.80
2023-07-18 10:57:00,SystemResetWarning,0831.5,5.00,000.00,029.4,028.3,000.0,037.8,031.1,14.9,0000.0,0004.35,0010.33,0003.82
2023-07-18 10:58:00,SystemResetWarning,0831.5,5.00,000.00,029.5,028.3,000.0,037.8,031.1,15.9,0000.0,0004.33,0010.20,0003.83
2023-07-18 10:59:00,SystemResetWarning,0831.4,4.98,000.00,029.5,027.1,000.0,037.7,031.0,15.7,0000.0,0004.31,0009.88,0003.83
